1507266000.5,55376,12.06,72348.3,-6.73,-7.77,-7.77,0,*50
1507266001.75,55377,12.06,72350.3,-6.73,-7.91,-8.03,0,*55
1507266003.01,55378,12.06,72368.3,-6.69,-8.07,-8.07,0,*55
1507266004.24,55379,12.06,72350.8,-6.73,-8.29,-8.07,0,*53
1507266005.46,55380,12.06,72344.0,-6.69,-8.07,-8.17,0,*53
1507266006.69,55381,12.06,72334.3,-6.69,-8.17,-8.07,0,*52
1507266007.92,55382,12.06,72338.3,-6.69,-8.29,-8.07,0,*5C
1507266009.12,55383,12.06,72394.5,-6.69,-7.53,-7.53,0,*51
1507266010.37,55384,12.06,72298.5,-6.69,-7.57,-7.65,0,*57
1507266011.59,55385,12.06,72402.0,-6.67,-7.53,-7.49,0,*52
1507266012.84,55386,12.06,72326.5,-6.69,-7.69,-7.91,0,*53
1507266014.06,55387,12.06,72388.3,-6.65,-8.11,-8.25,0,*5E
1507266015.31,55388,12.06,72290.8,-6.67,-8.59,-8.81,0,*51
1507266016.56,55389,12.06,72382.8,-6.67,-7.61,-7.87,0,*5D
1507266017.86,55390,12.06,72360.8,-6.67,-10.63,-11.07,0,*5E
1507266019.11,55391,12.06,72368.8,-6.67,-12.43,-12.15,0,*5F
1507266020.4,55392,12.06,72338.3,-6.67,-13.01,-11.89,0,*5D
1507266021.65,55393,12.06,72336.0,-6.67,-12.29,-11.41,0,*53
1507266022.88,55394,12.06,72332.8,-6.69,-12.83,-10.89,0,*5F
1507266024.09,55395,12.06,72316.0,-6.73,-11.23,-9.97,0,*6B
1507266025.33,55396,12.06,72330.5,-6.69,-11.23,-10.67,0,*54
1507266026.56,55397,12.06,72346.5,-6.69,-12.03,-9.57,0,*6F
1507266027.75,55398,12.06,72350.3,-6.73,-9.93,-8.97,0,*55
1507266028.95,55399,12.06,72362.0,-6.73,-9.67,-8.97,0,*5F
1507266030.17,55400,12.06,72368.0,-6.69,-9.45,-8.59,0,*51
1507266031.36,55401,12.06,72388.0,-6.73,-9.67,-8.63,0,*52
1507266032.58,55402,12.06,72378.8,-6.69,-10.05,-8.51,0,*67
1507266033.81,55403,12.06,72380.5,-6.69,-9.41,-8.17,0,*5C
1507266035.04,55404,12.06,72372.3,-6.73,-8.41,-7.91,0,*50
1507266036.27,55405,12.06,72370.0,-6.73,-7.95,-7.83,0,*54
1507266037.52,55406,12.06,72388.8,-6.69,-7.77,-7.65,0,*58
1507266038.71,55407,12.06,72372.5,-6.73,-7.53,-7.53,0,*51
1507266039.96,55408,12.06,72374.3,-6.69,-7.69,-7.69,0,*55
1507266041.23,55409,12.06,72350.8,-6.67,-7.99,-7.91,0,*52
1507266042.51,55410,12.06,72372.3,-6.67,-7.99,-7.99,0,*52
1507266043.75,55411,12.06,72380.8,-6.69,-8.03,-7.99,0,*51
1507266044.99,55412,12.06,72390.8,-6.69,-8.03,-7.95,0,*5E
1507266046.22,55413,12.06,72392.8,-6.69,-7.83,-7.57,0,*56
1507266047.41,55414,12.06,72412.8,-6.69,-7.83,-7.53,0,*55
1507266048.69,55415,12.06,72430.3,-6.67,-7.43,-7.43,0,*57
1507266049.95,55416,12.06,72436.8,-6.65,-7.43,-7.43,0,*56
1507266051.17,55417,12.06,72416.8,-6.67,-7.49,-7.49,0,*55
1507266052.39,55418,12.06,72390.8,-6.67,-7.49,-7.49,0,*5A
1507266053.61,55419,12.06,72362.8,-6.67,-7.49,-7.49,0,*5B
1507266054.87,55420,12.06,72392.5,-6.65,-7.61,-7.61,0,*53
1507266056.15,55421,12.06,72406.3,-6.67,-7.65,-7.61,0,*54
1507266057.37,55422,12.06,72344.5,-6.67,-7.53,-7.53,0,*53
1507266058.64,55423,12.06,72394.8,-6.67,-7.91,-7.77,0,*5A
1507266059.9,55424,12.06,72372.8,-6.65,-7.73,-7.61,0,*54
1507266061.18,55425,12.06,72378.0,-6.67,-7.61,-7.65,0,*50
1507266062.4,55426,12.06,72408.8,-6.65,-7.61,-7.53,0,*54
1507266063.62,55427,12.06,72404.5,-6.67,-7.53,-7.53,0,*56
1507266064.87,55428,12.06,72402.5,-6.67,-7.61,-7.53,0,*58
1507266066.09,55429,12.06,72404.0,-6.67,-7.53,-7.53,0,*58
1507266067.34,55430,12.06,72394.0,-6.67,-7.53,-7.61,0,*51
1507266068.59,55431,12.06,72392.0,-6.65,-7.61,-7.61,0,*53
1507266069.82,55432,12.06,72390.0,-6.65,-7.53,-7.61,0,*51
1507266071.05,55433,12.06,72440.0,-6.65,-7.73,-7.87,0,*5A
1507266072.29,55434,12.06,72442.0,-6.65,-7.91,-8.03,0,*52
1507266073.51,55435,12.06,72436.3,-6.65,-8.29,-8.03,0,*5F
1507266074.73,55436,12.06,72424.8,-6.65,-8.45,-8.03,0,*56
1507266075.93,55437,12.06,72406.3,-6.65,-8.29,-7.87,0,*5E
1507266077.21,55438,12.06,72402.8,-6.67,-8.03,-7.65,0,*57
1507266078.43,55439,12.06,72376.3,-6.65,-7.65,-7.53,0,*5E
1507266079.71,55440,12.06,72370.0,-6.67,-7.73,-7.73,0,*57
1507266080.96,55441,12.06,72360.0,-6.65,-7.77,-7.77,0,*54
1507266082.24,55442,12.06,72374.3,-6.67,-7.77,-7.77,0,*55
1507266083.49,55443,12.06,72370.3,-6.67,-7.53,-7.43,0,*55
1507266084.74,55444,12.06,72366.5,-6.67,-7.49,-7.43,0,*59
1507266085.97,55445,12.06,72384.5,-6.65,-7.53,-7.61,0,*51
1507266087.19,55446,12.06,72372.8,-6.65,-7.53,-7.61,0,*52
1507266088.45,55447,12.06,72340.8,-6.65,-7.61,-7.73,0,*51
1507266089.64,55448,12.06,72332.3,-6.65,-7.53,-7.53,0,*5D
1507266090.89,55449,12.06,72326.5,-6.65,-7.99,-7.73,0,*58
1507266092.12,55450,12.06,72328.0,-6.65,-7.99,-7.87,0,*5B
1507266093.36,55451,12.06,72340.0,-6.67,-7.61,-7.53,0,*56
1507266094.61,55452,12.06,72330.0,-6.65,-7.77,-7.73,0,*52
1507266095.86,55453,12.06,72338.8,-6.65,-7.91,-7.77,0,*5F
1507266097.11,55454,12.06,72358.8,-6.65,-7.99,-7.99,0,*50
1507266098.38,55455,12.06,72338.3,-6.67,-7.91,-7.99,0,*5B
1507266099.63,55456,12.06,72352.0,-6.67,-8.17,-8.03,0,*55
1507266100.87,55457,12.06,72340.5,-6.67,-8.17,-8.03,0,*54
1507266102.13,55458,12.06,72334.8,-6.67,-7.99,-7.87,0,*51
1507266103.41,55459,12.06,72344.3,-6.67,-8.11,-7.99,0,*50
1507266104.63,55460,12.06,72342.0,-6.65,-8.25,-8.03,0,*53
1507266105.87,55461,12.06,72300.5,-6.65,-8.03,-7.77,0,*5A
1507266107.15,55462,12.06,72318.8,-6.67,-7.77,-7.61,0,*50
1507266108.41,55463,12.06,72334.5,-6.65,-7.61,-7.61,0,*54
1507266109.65,55464,12.06,72392.0,-6.67,-7.61,-7.53,0,*50
1507266110.88,55465,12.06,72378.5,-6.65,-7.87,-7.73,0,*59
1507266112.1,55466,12.06,72348.0,-6.65,-8.17,-8.11,0,*57
1507266113.35,55467,12.06,72366.3,-6.67,-8.25,-8.03,0,*56
1507266114.57,55468,12.06,72346.3,-6.65,-8.29,-8.11,0,*54
1507266115.8,55469,12.06,72348.0,-6.67,-8.55,-8.25,0,*5B
1507266117.03,55470,12.06,72360.8,-6.65,-8.41,-8.11,0,*53
1507266118.25,55471,12.06,72310.5,-6.65,-8.25,-8.11,0,*50
1507266119.5,55472,12.06,72318.0,-6.67,-7.87,-7.77,0,*59
1507266120.73,55473,12.06,72304.3,-6.67,-7.87,-7.87,0,*57
1507266121.98,55474,12.06,72286.5,-6.67,-8.55,-8.11,0,*50
1507266123.26,55475,12.06,72286.3,-6.67,-8.11,-7.77,0,*5E
1507266124.52,55476,12.06,72218.3,-6.67,-7.99,-7.87,0,*5D
1507266125.79,55477,12.06,72218.3,-6.67,-7.91,-7.77,0,*5B
1507266127.07,55478,12.06,72284.5,-6.67,-7.77,-7.61,0,*5B
1507266128.29,55479,12.06,72278.3,-6.67,-7.53,-7.49,0,*56
1507266129.54,55480,12.06,72288.8,-6.67,-7.91,-7.87,0,*5C
1507266130.79,55481,12.06,72328.0,-6.65,-7.99,-7.77,0,*58
1507266132.02,55482,12.06,72310.8,-6.65,-7.87,-7.65,0,*57
1507266133.27,55483,12.06,72316.3,-6.67,-8.37,-8.11,0,*5C
1507266134.52,55484,12.06,72320.5,-6.65,-7.65,-7.65,0,*5D
1507266135.74,55485,12.06,72280.0,-6.67,-7.53,-7.53,0,*5E
1507266136.99,55486,12.06,72354.5,-6.67,-8.25,-8.11,0,*5A
1507266138.25,55487,12.06,72380.0,-6.67,-8.41,-8.11,0,*59
1507266139.5,55488,12.06,72358.0,-6.67,-8.41,-8.11,0,*56
1507266140.75,55489,12.06,72336.8,-6.67,-8.17,-7.91,0,*53
1507266142.03,55490,12.06,72308.8,-6.67,-7.99,-7.77,0,*5A
1507266143.25,55491,12.06,72340.5,-6.67,-7.53,-7.53,0,*5B
1507266144.5,55492,12.06,72364.8,-6.67,-7.87,-7.77,0,*57
1507266145.74,55493,12.06,72380.8,-6.67,-7.91,-7.53,0,*57
1507266147.02,55494,12.06,72376.3,-6.67,-7.77,-7.65,0,*5D
1507266148.29,55495,12.06,72380.8,-6.67,-7.77,-7.65,0,*5C
1507266149.51,55496,12.06,72380.0,-6.67,-7.53,-7.53,0,*5C
1507266150.77,55497,12.06,72382.3,-6.67,-7.53,-7.61,0,*5C
1507266151.96,55498,12.06,72380.5,-6.65,-7.49,-7.53,0,*5B
1507266153.18,55499,12.06,72368.5,-6.67,-7.49,-7.49,0,*53
1507266154.4,55500,12.06,72348.3,-6.65,-7.65,-7.53,0,*55
1507266155.66,55501,12.06,72340.3,-6.65,-7.61,-7.61,0,*51
1507266156.91,55502,12.06,72354.8,-6.65,-7.61,-7.61,0,*52
1507266158.13,55503,12.06,72346.0,-6.67,-7.53,-7.53,0,*51
1507266159.35,55504,12.06,72330.8,-6.65,-7.61,-7.53,0,*55
1507266160.54,55505,12.06,72310.0,-6.65,-7.53,-7.53,0,*55
1507266161.77,55506,12.06,72298.5,-6.65,-7.53,-7.61,0,*57
1507266163.02,55507,12.06,72340.3,-6.65,-7.65,-7.65,0,*57
1507266164.24,55508,12.06,72362.0,-6.67,-7.53,-7.53,0,*5A
1507266165.44,55509,12.06,72378.0,-6.65,-7.49,-7.49,0,*59
1507266166.63,55510,12.06,72384.8,-6.65,-7.49,-7.49,0,*51
1507266167.83,55511,12.06,72352.3,-6.65,-7.49,-7.49,0,*50
1507266169.04,55512,12.06,72390.8,-6.67,-7.49,-7.53,0,*5A
1507266170.3,55513,12.06,72366.5,-6.65,-7.65,-7.65,0,*52
1507266171.55,55514,12.06,72302.3,-6.65,-7.73,-7.65,0,*52
1507266172.77,55515,12.06,72350.0,-6.65,-7.61,-7.53,0,*55
1507266173.97,55516,12.06,72374.3,-6.65,-7.49,-7.49,0,*57
1507266175.22,55517,12.06,72356.5,-6.65,-7.35,-7.31,0,*52
1507266176.46,55518,12.06,72362.3,-6.65,-7.35,-7.31,0,*5D
1507266177.71,55519,12.06,72420.0,-6.65,-7.43,-7.35,0,*59
1507266178.97,55520,12.06,72362.5,-6.65,-7.65,-7.65,0,*52
1507266180.19,55521,12.06,72384.8,-6.65,-7.61,-7.53,0,*52
1507266181.44,55522,12.06,72360.0,-6.65,-7.43,-7.43,0,*50
1507266182.69,55523,12.06,72396.8,-6.65,-7.43,-7.35,0,*50
1507266183.96,55524,12.06,72400.3,-6.63,-7.31,-7.31,0,*50
1507266185.24,55525,12.06,72396.5,-6.63,-7.43,-7.31,0,*54
1507266186.5,55526,12.06,72410.3,-6.63,-7.39,-7.39,0,*52
1507266187.78,55527,12.06,72370.8,-6.63,-7.43,-7.43,0,*53
1507266189.03,55528,12.06,72352.3,-6.63,-7.43,-7.49,0,*56
1507266190.27,55529,12.06,72390.0,-6.63,-7.49,-7.43,0,*57
1507266191.55,55530,12.06,72402.8,-6.63,-7.43,-7.39,0,*58
1507266192.82,55531,12.06,72376.5,-6.63,-7.43,-7.39,0,*59
1507266194.1,55532,12.06,72384.3,-6.63,-7.61,-7.57,0,*52
1507266195.37,55533,12.06,72378.5,-6.63,-7.69,-7.69,0,*56
1507266196.61,55534,12.06,72372.8,-6.63,-7.61,-7.49,0,*5B
1507266197.86,55535,12.06,72342.0,-6.63,-7.49,-7.57,0,*5F
1507266199.13,55536,12.06,72360.0,-6.63,-7.61,-7.57,0,*56
1507266200.41,55537,12.06,72356.8,-6.63,-7.69,-7.73,0,*59
1507266201.68,55538,12.06,72330.3,-6.63,-7.73,-7.69,0,*56
1507266202.96,55539,12.06,72318.0,-6.63,-7.73,-7.73,0,*5C
1507266204.22,55540,12.06,72378.8,-6.65,-7.65,-7.61,0,*50
1507266205.47,55541,12.06,72354.8,-6.65,-7.65,-7.61,0,*51
1507266206.72,55542,12.06,72340.5,-6.65,-7.99,-7.99,0,*56
1507266207.96,55543,12.06,72366.8,-6.65,-7.99,-7.91,0,*5F
1507266209.21,55544,12.06,72372.8,-6.63,-7.99,-7.87,0,*59
1507266210.46,55545,12.06,72344.5,-6.65,-7.99,-7.91,0,*59
1507266211.71,55546,12.06,72362.0,-6.65,-7.77,-7.77,0,*52
1507266212.9,55547,12.06,72394.8,-6.65,-7.53,-7.53,0,*53
1507266214.15,55548,12.06,72400.5,-6.65,-7.43,-7.35,0,*5D
1507266215.35,55549,12.06,72366.5,-6.65,-7.53,-7.53,0,*5D
1507266216.55,55550,12.06,72388.0,-6.65,-7.53,-7.49,0,*5E
1507266217.8,55551,12.06,72384.5,-6.65,-7.43,-7.35,0,*55
1507266219.07,55552,12.06,72366.5,-6.63,-7.43,-7.43,0,*51
1507266220.29,55553,12.06,72406.0,-6.65,-7.49,-7.31,0,*59
1507266221.57,55554,12.06,72386.3,-6.63,-7.43,-7.39,0,*5A
1507266222.81,55555,12.06,72378.8,-6.63,-7.61,-7.49,0,*5C
1507266224.04,55556,12.06,72388.0,-6.61,-7.61,-7.49,0,*5D
1507266225.23,55557,12.06,72374.5,-6.61,-7.49,-7.49,0,*56
1507266226.48,55558,12.06,72374.3,-6.63,-7.57,-7.49,0,*54
1507266227.7,55559,12.06,72368.8,-6.63,-7.49,-7.49,0,*5A
1507266228.96,55560,12.06,72340.8,-6.63,-7.39,-7.39,0,*50
1507266230.21,55561,12.06,72346.8,-6.61,-7.43,-7.43,0,*53
1507266231.48,55562,12.06,72378.5,-6.63,-7.27,-7.27,0,*52
1507266232.7,55563,12.06,72376.5,-6.61,-7.27,-7.19,0,*5C
1507266233.93,55564,12.06,72376.8,-6.63,-7.15,-7.15,0,*54
1507266235.14,55565,12.06,72380.5,-6.59,-7.11,-7.11,0,*5C
1507266236.35,55566,12.06,72378.0,-6.61,-7.15,-7.05,0,*55
1507266237.58,55567,12.06,72388.5,-6.59,-7.15,-6.97,0,*55
1507266238.78,55568,12.06,72392.0,-6.59,-7.15,-7.15,0,*51
1507266240.01,55569,12.06,72374.5,-6.59,-7.11,-7.01,0,*51
1507266241.24,55570,12.06,72402.5,-6.59,-7.11,-7.01,0,*59
1507266242.47,55571,12.06,72414.5,-6.59,-7.11,-7.01,0,*58
1507266243.73,55572,12.06,72426.3,-6.57,-7.11,-7.01,0,*55
1507266244.98,55573,12.06,72418.3,-6.57,-7.15,-7.01,0,*50
1507266246.23,55574,12.06,72408.3,-6.57,-7.27,-7.23,0,*56
1507266247.49,55575,12.06,72392.0,-6.57,-7.27,-7.23,0,*57
1507266248.72,55576,12.06,72428.8,-6.57,-7.11,-7.15,0,*54
1507266249.95,55577,12.06,72428.0,-6.57,-7.23,-7.11,0,*50
1507266251.23,55578,12.06,72424.0,-6.57,-7.27,-7.27,0,*5E
1507266252.48,55579,12.06,72426.0,-6.57,-7.27,-7.23,0,*5B
1507266253.71,55580,12.06,72424.8,-6.57,-7.23,-7.11,0,*58
1507266254.99,55581,12.06,72426.8,-6.57,-7.35,-7.27,0,*5B
1507266256.27,55582,12.06,72440.5,-6.57,-7.35,-7.27,0,*58
1507266257.49,55583,12.06,72436.3,-6.55,-7.49,-7.39,0,*5F
1507266258.75,55584,12.06,72416.8,-6.55,-7.61,-7.61,0,*5F
1507266260.03,55585,12.06,72408.8,-6.57,-7.57,-7.43,0,*59
1507266261.31,55586,12.06,72390.3,-6.57,-7.39,-7.27,0,*50
1507266262.54,55587,12.06,72380.0,-6.57,-7.23,-7.23,0,*5E
1507266263.77,55588,12.06,72436.5,-6.57,-7.11,-7.11,0,*51
1507266265.01,55589,12.06,72444.3,-6.57,-7.11,-7.11,0,*50
1507266266.28,55590,12.06,72440.0,-6.57,-7.39,-7.39,0,*58
1507266267.56,55591,12.06,72424.3,-6.57,-7.27,-7.35,0,*5A
1507266268.78,55592,12.06,72426.0,-6.55,-7.31,-7.23,0,*5B
1507266269.99,55593,12.06,72418.8,-6.55,-7.23,-7.23,0,*59
1507266271.22,55594,12.06,72428.3,-6.53,-7.19,-7.11,0,*50
1507266272.46,55595,12.06,72426.8,-6.53,-7.11,-7.05,0,*5C
1507266273.69,55596,12.06,72432.0,-6.55,-7.11,-7.05,0,*59
1507266274.91,55597,12.06,72426.8,-6.55,-7.11,-7.05,0,*58
1507266276.17,55598,12.06,72426.8,-6.53,-7.05,-7.05,0,*54
1507266277.41,55599,12.06,72442.3,-6.53,-7.11,-7.05,0,*50
1507266278.66,55600,12.06,72434.3,-6.53,-7.11,-7.05,0,*53
1507266279.89,55601,12.06,72438.3,-6.53,-7.11,-7.19,0,*5F
1507266281.11,55602,12.06,72422.3,-6.51,-7.19,-7.27,0,*5B
1507266282.38,55603,12.06,72412.0,-6.53,-7.39,-7.39,0,*55
1507266283.62,55604,12.06,72426.8,-6.55,-7.39,-7.39,0,*54
1507266284.87,55605,12.06,72426.0,-6.53,-7.31,-7.23,0,*50
1507266286.12,55606,12.06,72436.0,-6.53,-7.31,-7.23,0,*53
1507266287.38,55607,12.06,72450.8,-6.53,-7.31,-7.31,0,*51
1507266288.65,55608,12.06,72450.8,-6.53,-7.31,-7.31,0,*5E
1507266289.93,55609,12.06,72454.3,-6.53,-7.35,-7.31,0,*5B
1507266291.19,55610,12.06,72450.0,-6.53,-7.39,-7.35,0,*5B
1507266292.46,55611,12.06,72434.0,-6.53,-7.35,-7.35,0,*56
1507266293.71,55612,12.06,72422.8,-6.51,-7.27,-7.27,0,*57
1507266294.93,55613,12.06,72430.3,-6.51,-7.15,-7.01,0,*53
1507266296.2,55614,12.06,72442.8,-6.53,-7.05,-6.97,0,*59
1507266297.45,55615,12.06,72450.0,-6.51,-7.01,-6.93,0,*5A
1507266298.67,55616,12.06,72450.3,-6.51,-6.93,-6.89,0,*58
1507266299.92,55617,12.06,72458.0,-6.47,-6.97,-7.01,0,*5B
1507266301.12,55618,12.06,72448.0,-6.47,-7.15,-7.11,0,*5E
1507266302.32,55619,12.06,72446.3,-6.47,-7.15,-7.15,0,*5B
1507266303.57,55620,12.06,72418.3,-6.51,-7.27,-7.27,0,*56
1507266304.81,55621,12.06,72384.3,-6.47,-7.31,-7.31,0,*50
1507266306.06,55622,12.06,72388.5,-6.51,-7.35,-7.35,0,*54
1507266307.31,55623,12.06,72390.5,-6.51,-7.35,-7.35,0,*55
1507266308.56,55624,12.06,72382.8,-6.51,-7.35,-7.35,0,*52
1507266309.75,55625,12.06,72378.5,-6.51,-7.49,-7.49,0,*53
1507266310.97,55626,12.06,72380.3,-6.47,-7.57,-7.53,0,*53
1507266312.17,55627,12.06,72372.8,-6.51,-7.49,-7.49,0,*51
1507266313.42,55628,12.06,72378.0,-6.51,-7.57,-7.57,0,*5E
1507266314.64,55629,12.06,72378.5,-6.47,-7.53,-7.57,0,*5C
1507266315.9,55630,12.06,72376.3,-6.51,-7.57,-7.57,0,*57
1507266317.15,55631,12.06,72390.3,-6.51,-7.43,-7.43,0,*56
1507266318.4,55632,12.06,72398.5,-6.51,-7.61,-7.69,0,*5D
1507266319.68,55633,12.06,72402.0,-6.53,-7.73,-7.65,0,*51
1507266320.9,55634,12.06,72356.0,-6.55,-7.91,-7.87,0,*50
1507266322.17,55635,12.06,72352.3,-6.53,-8.11,-7.99,0,*5F
1507266323.4,55636,12.06,72370.0,-6.55,-7.91,-7.87,0,*52
1507266324.67,55637,12.06,72370.8,-6.53,-7.65,-7.65,0,*52
1507266325.89,55638,12.06,72366.0,-6.55,-7.61,-7.53,0,*5A
1507266327.15,55639,12.06,72362.3,-6.55,-7.65,-7.73,0,*5D
1507266328.4,55640,12.06,72366.8,-6.55,-7.65,-7.65,0,*54
1507266329.65,55641,12.06,72372.8,-6.55,-7.39,-7.39,0,*55
1507266330.91,55642,12.06,72384.3,-6.53,-7.39,-7.35,0,*5C
1507266332.16,55643,12.06,72386.8,-6.55,-7.39,-7.39,0,*57
1507266333.35,55644,12.06,72386.5,-6.55,-7.53,-7.53,0,*50
1507266334.6,55645,12.06,72370.3,-6.55,-7.65,-7.65,0,*51
1507266335.86,55646,12.06,72368.0,-6.55,-7.73,-7.65,0,*55
1507266337.11,55647,12.06,72342.8,-6.55,-7.65,-7.65,0,*53
1507266338.37,55648,12.06,72328.3,-6.55,-7.65,-7.65,0,*5C
1507266339.64,55649,12.06,72344.8,-6.57,-7.95,-7.91,0,*5B
1507266340.91,55650,12.06,72340.0,-6.57,-7.69,-7.69,0,*57
1507266342.19,55651,12.06,72346.0,-6.57,-7.77,-7.57,0,*54
1507266343.48,55652,12.06,72342.3,-6.57,-7.57,-7.65,0,*54
1507266344.76,55653,12.06,72344.8,-6.57,-7.57,-7.57,0,*54
1507266346.03,55654,12.06,72326.5,-6.57,-7.69,-7.65,0,*5F
1507266347.31,55655,12.06,72358.8,-6.57,-7.69,-7.69,0,*52
1507266348.56,55656,12.06,72338.5,-6.59,-7.69,-7.65,0,*53
1507266349.84,55657,12.06,72336.0,-6.57,-7.57,-7.57,0,*50
1507266351.09,55658,12.06,72328.8,-6.57,-7.53,-7.57,0,*5B
1507266352.37,55659,12.06,72304.8,-6.57,-7.69,-7.65,0,*52
1507266353.65,55660,12.06,72330.3,-6.57,-7.77,-7.77,0,*54
1507266354.93,55661,12.06,72326.3,-6.57,-7.65,-7.57,0,*54
1507266356.21,55662,12.06,72328.5,-6.57,-7.65,-7.65,0,*56
1507266357.49,55663,12.06,72320.8,-6.57,-7.65,-7.57,0,*56
1507266358.75,55664,12.06,72328.3,-6.59,-7.57,-7.57,0,*5E
1507266359.99,55665,12.06,72364.0,-6.57,-7.43,-7.53,0,*50
1507266361.25,55666,12.06,72380.5,-6.59,-7.57,-7.65,0,*5D
1507266362.51,55667,12.06,72412.0,-6.59,-7.57,-7.57,0,*5D
1507266363.7,55668,12.06,72396.5,-6.59,-7.53,-7.53,0,*52
1507266364.96,55669,12.06,72378.8,-6.57,-7.53,-7.43,0,*5C
1507266366.24,55670,12.06,72372.3,-6.57,-7.43,-7.43,0,*55
1507266367.47,55671,12.06,72378.3,-6.59,-7.53,-7.43,0,*5B
1507266368.73,55672,12.06,72368.0,-6.57,-7.53,-7.43,0,*56
1507266369.98,55673,12.06,72398.3,-6.59,-7.43,-7.43,0,*58
1507266371.26,55674,12.06,72392.5,-6.57,-7.43,-7.39,0,*5C
1507266372.51,55675,12.06,72390.5,-6.57,-7.53,-7.39,0,*5C
1507266373.79,55676,12.06,72394.8,-6.57,-7.43,-7.39,0,*5E
1507266375.04,55677,12.13,72406.5,-6.57,-7.57,-7.53,0,*56
1507266376.26,55678,12.06,72406.0,-6.57,-7.53,-7.53,0,*5D
1507266377.55,55679,12.06,72414.5,-6.57,-7.43,-7.43,0,*5C
1507266378.82,55680,12.06,72422.8,-6.57,-7.43,-7.39,0,*57
1507266380.05,55681,12.06,72418.3,-6.59,-7.53,-7.57,0,*51
1507266381.33,55682,12.06,72402.0,-6.57,-7.65,-7.65,0,*58
1507266382.55,55683,12.06,72392.0,-6.57,-7.53,-7.53,0,*59
1507266383.82,55684,12.06,72392.3,-6.57,-7.39,-7.39,0,*5E
1507266385.1,55685,12.06,72406.8,-6.57,-7.35,-7.35,0,*5F
1507266386.37,55686,12.06,72404.8,-6.57,-7.27,-7.27,0,*5C
1507266387.63,55687,12.06,72392.0,-6.55,-7.35,-7.35,0,*5F
1507266388.88,55688,12.06,72380.5,-6.55,-7.35,-7.35,0,*50
1507266390.12,55689,12.06,72388.0,-6.55,-7.39,-7.35,0,*5D
1507266391.37,55690,12.06,72386.8,-6.55,-7.39,-7.35,0,*55
1507266392.62,55691,12.06,72388.0,-6.55,-7.35,-7.35,0,*58
1507266393.87,55692,12.06,72398.0,-6.55,-7.35,-7.35,0,*5B
1507266395.11,55693,12.06,72382.8,-6.55,-7.39,-7.35,0,*56
1507266396.37,55694,12.06,72400.5,-6.57,-7.57,-7.53,0,*5B
1507266397.59,55695,12.06,72366.0,-6.55,-7.61,-7.53,0,*5D
1507266398.84,55696,12.06,72380.8,-6.55,-7.61,-7.65,0,*5B
1507266400.12,55697,12.06,72380.8,-6.57,-7.77,-7.77,0,*5C
1507266401.39,55698,12.06,72384.3,-6.57,-7.77,-7.69,0,*5C
1507266402.62,55699,12.06,72392.0,-6.59,-7.53,-7.43,0,*5D
1507266403.91,55700,12.06,72388.3,-6.57,-7.43,-7.43,0,*53
1507266405.18,55701,12.06,72390.5,-6.57,-7.35,-7.35,0,*52
1507266406.39,55702,12.06,72386.5,-6.55,-7.23,-7.23,0,*53
1507266407.64,55703,12.06,72390.3,-6.55,-7.31,-7.35,0,*56
1507266408.91,55704,12.06,72392.0,-6.57,-7.39,-7.43,0,*5A
1507266410.18,55705,12.06,72388.5,-6.53,-7.39,-7.39,0,*52
1507266411.42,55706,12.06,72376.8,-6.55,-7.39,-7.35,0,*5B
1507266412.69,55707,12.06,72374.5,-6.53,-7.35,-7.31,0,*54
1507266413.94,55708,12.06,72378.5,-6.55,-7.35,-7.35,0,*59
1507266415.19,55709,12.06,72354.3,-6.55,-7.35,-7.39,0,*54
1507266416.44,55710,12.06,72360.0,-6.55,-7.39,-7.35,0,*5C
1507266417.67,55711,12.06,72358.8,-6.55,-7.31,-7.23,0,*52
1507266418.87,55712,12.06,72344.8,-6.55,-7.23,-7.19,0,*5B
1507266420.08,55713,12.06,72326.5,-6.55,-7.19,-7.19,0,*53
1507266421.35,55714,12.06,72326.8,-6.53,-7.35,-7.35,0,*52
1507266422.58,55715,12.06,72318.0,-6.53,-7.19,-7.11,0,*5B
1507266423.78,55716,12.06,72322.3,-6.55,-7.19,-7.23,0,*5F
1507266424.99,55717,12.06,72352.5,-6.55,-7.11,-7.19,0,*5F
1507266426.22,55718,12.06,72350.5,-6.55,-7.05,-7.11,0,*5D
1507266427.45,55719,12.06,72358.3,-6.55,-7.05,-7.11,0,*5C
1507266428.68,55720,12.06,72350.0,-6.53,-7.11,-7.11,0,*55
1507266429.89,55721,12.06,72330.5,-6.55,-7.19,-7.19,0,*52
1507266431.1,55722,12.06,72336.0,-6.55,-7.11,-7.11,0,*51
1507266432.34,55723,12.06,72366.0,-6.51,-7.05,-7.05,0,*54
1507266433.56,55724,12.06,72352.5,-6.53,-7.19,-7.19,0,*51
1507266434.8,55725,12.06,72302.3,-6.51,-7.05,-7.05,0,*52
1507266436.05,55726,12.06,72348.8,-6.51,-7.01,-7.01,0,*51
1507266437.25,55727,12.06,72356.8,-6.47,-7.23,-7.11,0,*56
1507266438.47,55728,12.06,72362.8,-6.51,-7.27,-7.15,0,*5E
1507266439.72,55729,12.06,72352.8,-6.53,-7.49,-7.39,0,*5B
1507266440.96,55730,12.06,72336.3,-6.51,-7.35,-7.35,0,*56
1507266442.16,55731,12.06,72374.8,-6.51,-7.15,-7.15,0,*57
1507266443.39,55732,12.06,72358.0,-6.51,-7.31,-7.19,0,*5E
1507266444.61,55733,12.06,72376.8,-6.51,-7.19,-7.27,0,*58
1507266445.86,55734,12.06,72356.8,-6.51,-7.31,-7.31,0,*52
1507266447.11,55735,12.06,72362.3,-6.51,-7.35,-7.27,0,*50
1507266448.36,55736,12.06,72366.3,-6.51,-7.35,-7.35,0,*50
1507266449.6,55737,12.06,72364.5,-6.51,-7.31,-7.27,0,*56
1507266450.84,55738,12.06,72396.0,-6.51,-7.01,-7.05,0,*5A
1507266452.09,55739,12.06,72384.0,-6.47,-7.35,-7.35,0,*58
1507266453.34,55740,12.06,72388.0,-6.51,-7.61,-7.61,0,*51
1507266454.6,55741,12.06,72398.0,-6.51,-7.57,-7.57,0,*50
1507266455.85,55742,12.06,72404.8,-6.51,-7.57,-7.57,0,*53
1507266457.1,55743,12.06,72404.5,-6.51,-7.61,-7.61,0,*52
1507266458.33,55744,12.06,72416.5,-6.51,-7.83,-7.73,0,*5A
1507266459.53,55745,12.06,72404.3,-6.51,-7.83,-7.83,0,*54
1507266460.8,55746,12.06,72380.0,-6.53,-7.77,-7.73,0,*51
1507266462.07,55747,12.06,72364.3,-6.53,-7.65,-7.65,0,*54
1507266463.27,55748,12.06,72374.8,-6.55,-7.53,-7.49,0,*56
1507266464.52,55749,12.06,72352.5,-6.55,-7.39,-7.39,0,*5C
1507266465.76,55750,12.06,72330.8,-6.53,-7.61,-7.53,0,*53
1507266466.96,55751,12.06,72316.0,-6.55,-7.53,-7.49,0,*5E
1507266468.22,55752,12.06,72312.3,-6.53,-7.39,-7.39,0,*50
1507266469.49,55753,12.06,72348.8,-6.53,-7.35,-7.31,0,*55
1507266470.7,55754,12.06,72358.3,-6.51,-7.19,-7.19,0,*54
1507266471.92,55755,12.06,72396.8,-6.53,-7.23,-7.23,0,*57
1507266473.12,55756,12.06,72410.0,-6.51,-7.15,-7.19,0,*5A
1507266474.35,55757,12.06,72456.3,-6.53,-7.19,-7.11,0,*5D
1507266475.61,55758,12.06,72430.5,-6.51,-7.43,-7.43,0,*58
1507266476.88,55759,12.06,72402.8,-6.53,-7.65,-7.73,0,*5C
1507266478.13,55760,12.06,72386.5,-6.53,-7.87,-7.77,0,*5E
1507266479.38,55761,12.06,72356.8,-6.51,-7.73,-7.73,0,*52
1507266480.6,55762,12.06,72374.0,-6.53,-7.53,-7.53,0,*53
1507266481.86,55763,12.06,72418.8,-6.53,-7.39,-7.35,0,*5E
1507266483.11,55764,12.06,72394.5,-6.53,-7.49,-7.39,0,*52
1507266484.37,55765,12.06,72410.3,-6.53,-7.39,-7.35,0,*58
1507266485.57,55766,12.06,72412.8,-6.55,-7.49,-7.49,0,*51
1507266486.84,55767,12.06,72404.3,-6.53,-7.65,-7.65,0,*56
1507266488.07,55768,12.06,72374.8,-6.55,-7.61,-7.53,0,*5E
1507266489.32,55769,12.06,72402.0,-6.55,-7.61,-7.61,0,*5E
1507266490.52,55770,12.06,72410.5,-6.55,-7.49,-7.49,0,*56
1507266491.73,55771,12.06,72406.3,-6.53,-7.53,-7.53,0,*51
1507266493.01,55772,12.06,72396.3,-6.53,-7.65,-7.61,0,*56
1507266494.28,55773,12.06,72370.0,-6.53,-7.65,-7.73,0,*54
1507266495.54,55774,12.06,72374.5,-6.55,-7.73,-7.65,0,*55
1507266496.79,55775,12.06,72356.8,-6.53,-7.53,-7.61,0,*54
1507266498.04,55776,12.06,72354.3,-6.55,-7.65,-7.65,0,*50
1507266499.27,55777,12.06,72366.0,-6.55,-7.87,-7.77,0,*5E
1507266500.47,55778,12.06,72354.3,-6.55,-7.87,-7.87,0,*5E
1507266501.72,55779,12.06,72340.3,-6.53,-7.87,-7.91,0,*5E
1507266502.97,55780,12.06,72362.8,-6.55,-7.65,-7.65,0,*59
1507266504.22,55781,12.06,72360.5,-6.57,-7.77,-7.83,0,*51
1507266505.5,55782,12.06,72374.0,-6.57,-7.77,-7.77,0,*59
1507266506.76,55783,12.06,72360.3,-6.59,-7.57,-7.57,0,*56
1507266508.0,55784,12.06,72346.8,-6.53,-7.49,-7.35,0,*50
1507266509.27,55785,12.06,72348.8,-6.53,-7.39,-7.31,0,*52
1507266510.52,55786,12.06,72346.5,-6.55,-7.35,-7.31,0,*5B
1507266511.77,55787,12.06,72328.0,-6.55,-7.31,-7.31,0,*5E
1507266513.04,55788,12.06,72376.3,-6.53,-7.31,-7.31,0,*57
1507266514.24,55789,12.06,72398.8,-6.55,-7.23,-7.11,0,*51